Location: Unspecified
(0.0000°N, 0.0000°E)
Time: 07:06:08
(UTC+00:00)

Altair - Visible Passes

Search period start: 28 August 2014 00:00
Search period end: 07 September 2014 00:00
Orbit: 1502 x 1682 km, 47.2° (Epoch: 25 August)

Date Brightness Start Highest point End Pass type
(mag) Time Alt. Az. Time Alt. Az. Time Alt. Az.
28 Aug 7.9 03:38:23 19° NNW 03:45:15 58° NE 03:54:28 10° SE visible
28 Aug 10.0 18:37:12 10° WNW 18:40:46 12° NW 18:44:17 10° NNW visible
29 Aug 8.0 03:17:04 39° N 03:20:08 51° NE 03:29:10 10° SE visible
29 Aug 8.1 05:16:39 10° WNW 05:24:40 33° SW 05:32:59 10° SSE visible
30 Aug 8.1 02:55:17 45° NE 02:55:17 45° NE 03:03:49 10° ESE visible
30 Aug 7.9 04:53:27 18° WNW 04:59:31 37° SW 05:08:06 10° SSE visible
31 Aug 8.7 02:33:08 31° E 02:33:08 31° E 02:38:26 10° ESE visible
31 Aug 7.8 04:31:17 33° W 04:34:22 42° SW 04:43:10 10° SSE visible
01 Sep 9.3 02:10:43 18° ESE 02:10:43 18° ESE 02:13:00 10° ESE visible
01 Sep 7.6 04:08:50 47° WSW 04:09:13 47° SW 04:18:13 10° SSE visible
02 Sep 7.8 03:46:10 46° SSW 03:46:10 46° SSW 03:53:13 10° SSE visible
03 Sep 8.3 03:23:18 34° SSE 03:23:18 34° SSE 03:28:12 10° SSE visible
04 Sep 8.9 03:00:17 23° SSE 03:00:17 23° SSE 03:03:10 10° SSE visible
04 Sep 9.0 04:58:21 11° SW 04:59:07 11° SW 05:01:12 10° SSW visible
05 Sep 9.4 02:37:07 14° SSE 02:37:07 14° SSE 02:38:05 10° SE visible
05 Sep 9.0 04:35:10 12° SW 04:35:10 12° SW 04:37:37 10° SSW visible
06 Sep 9.1 04:11:52 13° SSW 04:11:52 13° SSW 04:13:26 10° SSW visible
